Location: *
(43.4667°N, 11.6833°E)
Time: 02:26:25
(UTC+00:00)

Cosmos 1092 Rocket - Pass Details

Date: 19 July 2019
Orbit: 953 x 996 km, 82.9° (Epoch: 20 August)

Event Time Altitude Azimuth Distance (km) Brightness Sun altitude
Rises 20:16:22 0° 356° (N) 3,689 7.9 -13.2°
Reaches altitude 10° 20:18:59 10° 1° (N) 2,731 7.0 -13.6°
Maximum altitude 20:25:05 54° 78° (ENE) 1,168 4.2 -14.3°
Enters shadow 20:29:10 21° 148° (SSE) 2,021 5.0 -14.8°
